This is the latest recevied weather packets stored in our database for station/object OK1FPA-15. If no packets are shown the sender has not sent any weather packets the latest 10 day(s).
| Time | Temp. | Humidity | Pressure | Rain* | Wind** | Luminosity | Snow |
|---|---|---|---|---|---|---|---|
| 1777586847 | 5° C | 68% | 1030.7 hPa | - | - | - | - |
| 1777586247 | 5° C | 67% | 1030.6 hPa | - | - | - | - |
| 1777585647 | 5.56° C | 67% | 1030.7 hPa | - | - | - | - |
| 1777585047 | 5.56° C | 66% | 1030.7 hPa | - | - | - | - |
| 1777584447 | 5.56° C | 65% | 1030.7 hPa | - | - | - | - |
| 1777583847 | 6.11° C | 65% | 1030.5 hPa | - | - | - | - |
| 1777583247 | 6.11° C | 64% | 1030.6 hPa | - | - | - | - |
| 1777582647 | 6.11° C | 63% | 1030.5 hPa | - | - | - | - |
| 1777582047 | 6.67° C | 62% | 1030.5 hPa | - | - | - | - |
| 1777581447 | 6.67° C | 61% | 1030.4 hPa | - | - | - | - |
| 1777580847 | 7.22° C | 60% | 1030.4 hPa | - | - | - | - |
| 1777580247 | 7.22° C | 59% | 1030.4 hPa | - | - | - | - |
| 1777579647 | 7.78° C | 58% | 1030.3 hPa | - | - | - | - |
| 1777579047 | 7.78° C | 57% | 1030.3 hPa | - | - | - | - |
| 1777578447 | 8.33° C | 56% | 1030.2 hPa | - | - | - | - |
| 1777577847 | 8.89° C | 55% | 1030.3 hPa | - | - | - | - |
| 1777577247 | 8.89° C | 54% | 1030.3 hPa | - | - | - | - |
| 1777576647 | 9.44° C | 52% | 1030.2 hPa | - | - | - | - |
| 1777576047 | 10° C | 51% | 1030.1 hPa | - | - | - | - |
| 1777575447 | 10° C | 51% | 1030 hPa | - | - | - | - |
| 1777574847 | 10.56° C | 49% | 1029.9 hPa | - | - | - | - |
| 1777574247 | 11.11° C | 47% | 1029.8 hPa | - | - | - | - |
| 1777573648 | 11.67° C | 46% | 1029.8 hPa | - | - | - | - |
| 1777573047 | 12.22° C | 43% | 1029.8 hPa | - | - | - | - |
| 1777572447 | 12.78° C | 43% | 1029.8 hPa | - | - | - | - |
* Rain since midnight (hover to see other rain measurements)
** Current wind speed in m/s (hover to see current wind gust speed)